Year,Month,Day,Hour,Minute,Value (Times are PST for windgust in km/hr)
2013,09,29,00,02,1.60
2013,09,29,00,12,1.60
2013,09,29,00,13,1.60
2013,09,29,00,15,1.60
2013,09,29,00,16,3.20
2013,09,29,00,17,1.60
2013,09,29,00,18,1.60
2013,09,29,00,19,4.80
2013,09,29,00,20,6.40
2013,09,29,00,21,6.40
2013,09,29,00,22,1.60
2013,09,29,00,24,3.20
2013,09,29,00,25,3.20
2013,09,29,00,26,1.60
2013,09,29,00,29,3.20
2013,09,29,00,30,1.60
2013,09,29,00,31,1.60
2013,09,29,00,32,3.20
2013,09,29,00,33,1.60
2013,09,29,00,40,1.60
2013,09,29,00,41,1.60
2013,09,29,00,47,1.60
2013,09,29,00,48,3.20
2013,09,29,00,49,1.60
2013,09,29,00,50,1.60
2013,09,29,00,51,1.60
2013,09,29,00,52,3.20
2013,09,29,00,53,1.60
2013,09,29,00,55,3.20
2013,09,29,00,56,1.60
2013,09,29,00,57,3.20
2013,09,29,00,59,3.20
2013,09,29,01,00,3.20
2013,09,29,01,01,3.20
2013,09,29,01,02,1.60
2013,09,29,01,11,1.60
2013,09,29,01,12,1.60
2013,09,29,01,28,1.60
2013,09,29,01,29,3.20
2013,09,29,01,30,1.60
2013,09,29,01,31,4.80
2013,09,29,01,32,4.80
2013,09,29,01,33,3.20
2013,09,29,01,34,3.20
2013,09,29,01,35,9.60
2013,09,29,01,36,6.40
2013,09,29,01,37,4.80
2013,09,29,01,38,4.80
2013,09,29,01,40,1.60
2013,09,29,01,41,3.20
2013,09,29,01,42,1.60
2013,09,29,01,44,1.60
2013,09,29,01,47,1.60
2013,09,29,01,48,1.60
2013,09,29,01,53,1.60
2013,09,29,01,54,3.20
2013,09,29,01,57,1.60
2013,09,29,01,58,3.20
2013,09,29,01,59,3.20
2013,09,29,02,00,1.60
2013,09,29,02,07,3.20
2013,09,29,02,08,1.60
2013,09,29,02,09,1.60
2013,09,29,02,17,4.80
2013,09,29,02,18,4.80
2013,09,29,02,19,6.40
2013,09,29,02,20,1.60
2013,09,29,02,24,3.20
2013,09,29,02,25,3.20
2013,09,29,02,26,3.20
2013,09,29,02,27,3.20
2013,09,29,02,28,3.20
2013,09,29,02,29,8.10
2013,09,29,02,30,6.40
2013,09,29,02,31,3.20
2013,09,29,02,32,4.80
2013,09,29,02,33,3.20
2013,09,29,02,35,3.20
2013,09,29,02,36,4.80
2013,09,29,02,37,1.60
2013,09,29,02,38,1.60
2013,09,29,02,39,1.60
2013,09,29,02,40,1.60
2013,09,29,02,42,1.60
2013,09,29,02,56,1.60
2013,09,29,02,58,1.60
2013,09,29,02,59,1.60
2013,09,29,03,00,3.20
2013,09,29,03,01,1.60
2013,09,29,03,05,1.60
2013,09,29,03,06,1.60
2013,09,29,03,07,1.60
2013,09,29,03,08,1.60
2013,09,29,03,10,1.60
2013,09,29,03,11,1.60
2013,09,29,03,12,4.80
2013,09,29,03,13,3.20
2013,09,29,03,14,4.80
2013,09,29,03,15,1.60
2013,09,29,03,16,1.60
2013,09,29,03,17,1.60
2013,09,29,03,18,3.20
2013,09,29,03,19,3.20
2013,09,29,03,20,1.60
2013,09,29,03,24,4.80
2013,09,29,03,25,4.80
2013,09,29,03,28,1.60
2013,09,29,03,29,3.20
2013,09,29,03,30,1.60
2013,09,29,03,31,3.20
2013,09,29,03,32,1.60
2013,09,29,03,33,1.60
2013,09,29,03,35,3.20
2013,09,29,03,36,4.80
2013,09,29,03,37,3.20
2013,09,29,03,38,3.20
2013,09,29,03,39,3.20
2013,09,29,03,40,3.20
2013,09,29,03,41,3.20
2013,09,29,03,43,3.20
2013,09,29,03,44,1.60
2013,09,29,03,48,1.60
2013,09,29,03,49,3.20
2013,09,29,03,51,1.60
2013,09,29,03,52,1.60
2013,09,29,03,53,3.20
2013,09,29,03,54,3.20
2013,09,29,03,57,1.60
2013,09,29,03,58,1.60
2013,09,29,04,07,1.60
2013,09,29,04,09,1.60
2013,09,29,04,14,3.20
2013,09,29,04,15,4.80
2013,09,29,04,16,3.20
2013,09,29,04,19,1.60
2013,09,29,04,21,1.60
2013,09,29,04,22,3.20
2013,09,29,04,23,1.60
2013,09,29,04,24,3.20
2013,09,29,04,25,1.60
2013,09,29,04,26,3.20
2013,09,29,04,27,3.20
2013,09,29,04,28,1.60
2013,09,29,04,29,3.20
2013,09,29,04,31,3.20
2013,09,29,04,32,3.20
2013,09,29,04,33,1.60
2013,09,29,04,35,1.60
2013,09,29,04,36,1.60
2013,09,29,04,37,1.60
2013,09,29,04,38,3.20
2013,09,29,04,39,3.20
2013,09,29,04,40,3.20
2013,09,29,04,41,1.60
2013,09,29,04,42,1.60
2013,09,29,04,51,3.20
2013,09,29,04,52,3.20
2013,09,29,04,56,1.60
2013,09,29,04,57,1.60
2013,09,29,04,58,1.60
2013,09,29,04,59,1.60
2013,09,29,05,00,1.60
2013,09,29,05,03,1.60
2013,09,29,05,04,1.60
2013,09,29,05,05,1.60
2013,09,29,05,06,3.20
2013,09,29,05,07,1.60
2013,09,29,05,08,3.20
2013,09,29,05,09,4.80
2013,09,29,05,10,1.60
2013,09,29,05,13,3.20
2013,09,29,05,14,8.10
2013,09,29,05,15,3.20
2013,09,29,05,16,6.40
2013,09,29,05,17,3.20
2013,09,29,05,18,3.20
2013,09,29,05,19,1.60
2013,09,29,05,21,3.20
2013,09,29,05,22,4.80
2013,09,29,05,23,4.80
2013,09,29,05,24,4.80
2013,09,29,05,25,4.80
2013,09,29,05,26,3.20
2013,09,29,05,27,3.20
2013,09,29,05,28,1.60
2013,09,29,05,29,4.80
2013,09,29,05,30,6.40
2013,09,29,05,31,3.20
2013,09,29,05,32,3.20
2013,09,29,05,33,1.60
2013,09,29,05,34,1.60
2013,09,29,05,35,1.60
2013,09,29,05,36,4.80
2013,09,29,05,37,1.60
2013,09,29,05,38,3.20
2013,09,29,05,40,3.20
2013,09,29,05,41,3.20
2013,09,29,05,42,3.20
2013,09,29,05,43,3.20
2013,09,29,05,46,1.60
2013,09,29,05,47,1.60
2013,09,29,05,48,3.20
2013,09,29,05,50,3.20
2013,09,29,05,51,6.40
2013,09,29,05,52,3.20
2013,09,29,05,53,3.20
2013,09,29,05,54,3.20
2013,09,29,05,55,3.20
2013,09,29,05,56,1.60
2013,09,29,05,57,3.20
2013,09,29,05,58,6.40
2013,09,29,05,59,3.20
2013,09,29,06,00,3.20
2013,09,29,06,01,3.20
2013,09,29,06,02,1.60
2013,09,29,06,03,1.60
2013,09,29,06,04,1.60
2013,09,29,06,05,3.20
2013,09,29,06,06,4.80
2013,09,29,06,07,1.60
2013,09,29,06,08,4.80
2013,09,29,06,09,1.60
2013,09,29,06,10,1.60
2013,09,29,06,11,4.80
2013,09,29,06,12,4.80
2013,09,29,06,13,3.20
2013,09,29,06,14,1.60
2013,09,29,06,15,6.40
2013,09,29,06,16,3.20
2013,09,29,06,17,3.20
2013,09,29,06,18,6.40
2013,09,29,06,19,4.80
2013,09,29,06,20,3.20
2013,09,29,06,21,6.40
2013,09,29,06,22,6.40
2013,09,29,06,23,3.20
2013,09,29,06,24,1.60
2013,09,29,06,25,6.40
2013,09,29,06,26,1.60
2013,09,29,06,27,4.80
2013,09,29,06,28,6.40
2013,09,29,06,29,3.20
2013,09,29,06,30,4.80
2013,09,29,06,31,4.80
2013,09,29,06,32,3.20
2013,09,29,06,33,3.20
2013,09,29,06,34,3.20
2013,09,29,06,35,3.20
2013,09,29,06,36,4.80
2013,09,29,06,37,4.80
2013,09,29,06,38,4.80
2013,09,29,06,39,1.60
2013,09,29,06,40,4.80
2013,09,29,06,41,3.20
2013,09,29,06,42,4.80
2013,09,29,06,43,6.40
2013,09,29,06,44,3.20
2013,09,29,06,45,6.40
2013,09,29,06,46,8.10
2013,09,29,06,47,3.20
2013,09,29,06,48,4.80
2013,09,29,06,49,1.60
2013,09,29,06,50,1.60
2013,09,29,06,51,1.60
2013,09,29,06,52,1.60
2013,09,29,06,53,1.60
2013,09,29,06,54,3.20
2013,09,29,06,55,1.60
2013,09,29,06,56,4.80
2013,09,29,06,57,3.20
2013,09,29,06,58,1.60
2013,09,29,06,59,1.60
2013,09,29,07,00,3.20
2013,09,29,07,01,9.60
2013,09,29,07,02,11.30
2013,09,29,07,03,1.60
2013,09,29,07,04,4.80
2013,09,29,07,05,4.80
2013,09,29,07,06,4.80
2013,09,29,07,07,3.20
2013,09,29,07,08,3.20
2013,09,29,07,09,3.20
2013,09,29,07,10,3.20
2013,09,29,07,11,1.60
2013,09,29,07,13,1.60
2013,09,29,07,14,1.60
2013,09,29,07,15,1.60
2013,09,29,07,17,1.60
2013,09,29,07,18,1.60
2013,09,29,07,19,1.60
2013,09,29,07,20,1.60
2013,09,29,07,22,1.60
2013,09,29,07,23,1.60
2013,09,29,07,24,1.60
2013,09,29,07,27,1.60
2013,09,29,07,28,1.60
2013,09,29,07,30,3.20
2013,09,29,07,31,3.20
2013,09,29,07,32,1.60
2013,09,29,07,34,4.80
2013,09,29,07,35,3.20
2013,09,29,07,36,6.40
2013,09,29,07,37,3.20
2013,09,29,07,38,4.80
2013,09,29,07,39,4.80
2013,09,29,07,40,1.60
2013,09,29,07,41,1.60
2013,09,29,07,42,1.60
2013,09,29,07,43,1.60
2013,09,29,07,44,1.60
2013,09,29,07,45,3.20
2013,09,29,07,46,3.20
2013,09,29,07,47,1.60
2013,09,29,07,48,1.60
2013,09,29,07,49,1.60
2013,09,29,07,50,1.60
2013,09,29,07,51,1.60
2013,09,29,07,52,3.20
2013,09,29,07,53,3.20
2013,09,29,07,54,3.20
2013,09,29,07,55,3.20
2013,09,29,07,56,3.20
2013,09,29,07,57,1.60
2013,09,29,07,58,4.80
2013,09,29,07,59,4.80
2013,09,29,08,00,9.60
2013,09,29,08,01,8.10
2013,09,29,08,02,3.20
2013,09,29,08,03,3.20
2013,09,29,08,04,1.60
2013,09,29,08,05,11.30
2013,09,29,08,06,1.60
2013,09,29,08,07,1.60
2013,09,29,08,08,1.60
2013,09,29,08,09,3.20
2013,09,29,08,10,4.80
2013,09,29,08,11,4.80
2013,09,29,08,12,1.60
2013,09,29,08,13,6.40
2013,09,29,08,14,6.40
2013,09,29,08,15,8.10
2013,09,29,08,16,9.60
2013,09,29,08,17,4.80
2013,09,29,08,18,3.20
2013,09,29,08,19,6.40
2013,09,29,08,20,3.20
2013,09,29,08,21,3.20
2013,09,29,08,22,3.20
2013,09,29,08,23,4.80
2013,09,29,08,24,4.80
2013,09,29,08,25,4.80
2013,09,29,08,26,3.20
2013,09,29,08,27,4.80
2013,09,29,08,28,4.80
2013,09,29,08,29,3.20
2013,09,29,08,30,3.20
2013,09,29,08,31,8.10
2013,09,29,08,32,6.40
2013,09,29,08,33,3.20
2013,09,29,08,34,4.80
2013,09,29,08,35,6.40
2013,09,29,08,36,1.60
2013,09,29,08,37,3.20
2013,09,29,08,38,3.20
2013,09,29,08,39,3.20
2013,09,29,08,40,4.80
2013,09,29,08,41,6.40
2013,09,29,08,42,1.60
2013,09,29,08,43,3.20
2013,09,29,08,44,4.80
2013,09,29,08,45,3.20
2013,09,29,08,46,3.20
2013,09,29,08,47,3.20
2013,09,29,08,48,4.80
2013,09,29,08,49,1.60
2013,09,29,08,51,3.20
2013,09,29,08,52,3.20
2013,09,29,08,53,3.20
2013,09,29,08,54,1.60
2013,09,29,08,55,4.80
2013,09,29,08,56,4.80
2013,09,29,08,57,3.20
2013,09,29,08,58,6.40
2013,09,29,08,59,8.10
2013,09,29,09,00,1.60
2013,09,29,09,01,1.60
2013,09,29,09,02,3.20
2013,09,29,09,03,1.60
2013,09,29,09,04,1.60
2013,09,29,09,05,8.10
2013,09,29,09,06,4.80
2013,09,29,09,07,3.20
2013,09,29,09,08,4.80
2013,09,29,09,09,4.80
2013,09,29,09,10,3.20
2013,09,29,09,11,3.20
2013,09,29,09,12,3.20
2013,09,29,09,13,3.20
2013,09,29,09,14,4.80
2013,09,29,09,15,3.20
2013,09,29,09,16,4.80
2013,09,29,09,17,1.60
2013,09,29,09,18,1.60
2013,09,29,09,20,6.40
2013,09,29,09,21,3.20
2013,09,29,09,22,3.20
2013,09,29,09,23,4.80
2013,09,29,09,24,4.80
2013,09,29,09,25,3.20
2013,09,29,09,26,6.40
2013,09,29,09,27,8.10
2013,09,29,09,28,8.10
2013,09,29,09,29,3.20
2013,09,29,09,30,4.80
2013,09,29,09,31,4.80
2013,09,29,09,32,3.20
2013,09,29,09,33,3.20
2013,09,29,09,34,3.20
2013,09,29,09,35,4.80
2013,09,29,09,36,4.80
2013,09,29,09,37,4.80
2013,09,29,09,38,3.20
2013,09,29,09,39,4.80
2013,09,29,09,40,1.60
2013,09,29,09,41,3.20
2013,09,29,09,42,4.80
2013,09,29,09,43,6.40
2013,09,29,09,44,4.80
2013,09,29,09,45,6.40
2013,09,29,09,46,6.40
2013,09,29,09,47,8.10
2013,09,29,09,48,6.40
2013,09,29,09,49,6.40
2013,09,29,09,50,4.80
2013,09,29,09,51,8.10
2013,09,29,09,52,4.80
2013,09,29,09,53,6.40
2013,09,29,09,54,4.80
2013,09,29,09,55,3.20
2013,09,29,09,56,3.20
2013,09,29,09,57,3.20
2013,09,29,09,58,3.20
2013,09,29,09,59,1.60
2013,09,29,10,00,4.80
2013,09,29,10,01,4.80
2013,09,29,10,02,4.80
2013,09,29,10,03,3.20
2013,09,29,10,04,4.80
2013,09,29,10,05,3.20
2013,09,29,10,06,1.60
2013,09,29,10,07,3.20
2013,09,29,10,08,6.40
2013,09,29,10,09,3.20
2013,09,29,10,10,4.80
2013,09,29,10,11,3.20
2013,09,29,10,12,3.20
2013,09,29,10,14,1.60
2013,09,29,10,15,3.20
2013,09,29,10,16,3.20
2013,09,29,10,17,4.80
2013,09,29,10,18,3.20
2013,09,29,10,19,4.80
2013,09,29,10,20,3.20
2013,09,29,10,21,1.60
2013,09,29,10,22,3.20
2013,09,29,10,23,3.20
2013,09,29,10,24,1.60
2013,09,29,10,25,1.60
2013,09,29,10,29,3.20
2013,09,29,10,30,3.20
2013,09,29,10,31,1.60
2013,09,29,10,32,1.60
2013,09,29,10,34,1.60
2013,09,29,10,35,1.60
2013,09,29,10,36,1.60
2013,09,29,10,37,1.60
2013,09,29,10,38,3.20
2013,09,29,10,39,1.60
2013,09,29,10,41,1.60
2013,09,29,10,43,1.60
2013,09,29,10,44,6.40
2013,09,29,10,45,4.80
2013,09,29,10,46,4.80
2013,09,29,10,47,1.60
2013,09,29,10,48,1.60
2013,09,29,10,50,4.80
2013,09,29,10,51,3.20
2013,09,29,10,52,1.60
2013,09,29,10,53,3.20
2013,09,29,10,54,4.80
2013,09,29,10,55,1.60
2013,09,29,10,56,1.60
2013,09,29,10,57,1.60
2013,09,29,10,58,1.60
2013,09,29,10,59,1.60
2013,09,29,11,00,4.80
2013,09,29,11,05,1.60
2013,09,29,11,06,1.60
2013,09,29,11,07,4.80
2013,09,29,11,08,3.20
2013,09,29,11,09,3.20
2013,09,29,11,10,1.60
2013,09,29,11,11,1.60
2013,09,29,11,13,1.60
2013,09,29,11,14,1.60
2013,09,29,11,15,1.60
2013,09,29,11,16,3.20
2013,09,29,11,18,1.60
2013,09,29,11,19,3.20
2013,09,29,11,20,1.60
2013,09,29,11,23,3.20
2013,09,29,11,24,1.60
2013,09,29,11,33,3.20
2013,09,29,11,34,4.80
2013,09,29,11,35,4.80
2013,09,29,11,36,3.20
2013,09,29,11,45,1.60
2013,09,29,11,46,1.60
2013,09,29,11,48,1.60
2013,09,29,11,49,1.60
2013,09,29,11,51,1.60
2013,09,29,11,54,3.20
2013,09,29,11,55,3.20
2013,09,29,11,58,3.20
2013,09,29,11,59,1.60
2013,09,29,12,02,3.20
2013,09,29,12,03,3.20
2013,09,29,12,05,1.60
2013,09,29,12,06,3.20
2013,09,29,12,07,1.60
2013,09,29,12,08,3.20
2013,09,29,12,09,1.60
2013,09,29,12,10,1.60
2013,09,29,12,11,3.20
2013,09,29,12,12,3.20
2013,09,29,12,13,3.20
2013,09,29,12,16,3.20
2013,09,29,12,17,1.60
2013,09,29,12,22,1.60
2013,09,29,12,23,1.60
2013,09,29,12,30,1.60
2013,09,29,12,33,1.60
2013,09,29,12,35,1.60
2013,09,29,12,41,3.20
2013,09,29,12,42,1.60
2013,09,29,12,45,3.20
2013,09,29,12,46,1.60
2013,09,29,12,47,3.20
2013,09,29,12,48,1.60
2013,09,29,12,52,1.60
2013,09,29,12,56,1.60
2013,09,29,12,57,1.60
2013,09,29,12,58,1.60
2013,09,29,13,00,1.60
2013,09,29,13,01,3.20
2013,09,29,13,02,3.20
2013,09,29,13,03,4.80
2013,09,29,13,04,3.20
2013,09,29,13,05,1.60
2013,09,29,13,06,3.20
2013,09,29,13,07,1.60
2013,09,29,13,09,6.40
2013,09,29,13,10,6.40
2013,09,29,13,11,1.60
2013,09,29,13,12,1.60
2013,09,29,13,22,8.10
2013,09,29,13,23,6.40
2013,09,29,13,24,3.20
2013,09,29,13,25,1.60
2013,09,29,13,26,3.20
2013,09,29,13,27,1.60
2013,09,29,13,28,1.60
2013,09,29,13,29,1.60
2013,09,29,13,30,1.60
2013,09,29,13,31,3.20
2013,09,29,13,32,3.20
2013,09,29,13,33,1.60
2013,09,29,13,34,4.80
2013,09,29,13,35,4.80
2013,09,29,13,36,3.20
2013,09,29,13,37,1.60
2013,09,29,13,38,3.20
2013,09,29,13,39,1.60
2013,09,29,13,40,3.20
2013,09,29,13,41,3.20
2013,09,29,13,42,1.60
2013,09,29,13,46,1.60
2013,09,29,13,47,6.40
2013,09,29,13,48,3.20
2013,09,29,13,50,1.60
2013,09,29,13,51,3.20
2013,09,29,13,54,1.60
2013,09,29,13,56,1.60
2013,09,29,14,01,1.60
2013,09,29,14,03,1.60
2013,09,29,14,04,3.20
2013,09,29,14,05,1.60
2013,09,29,14,06,1.60
2013,09,29,14,26,1.60
2013,09,29,14,30,1.60
2013,09,29,14,34,1.60
2013,09,29,14,35,3.20
2013,09,29,14,40,1.60
2013,09,29,14,42,1.60
2013,09,29,14,45,1.60
2013,09,29,14,46,3.20
2013,09,29,14,47,4.80
2013,09,29,14,48,3.20
2013,09,29,14,49,1.60
2013,09,29,14,50,1.60
2013,09,29,14,51,6.40
2013,09,29,14,52,4.80
2013,09,29,14,53,1.60
2013,09,29,14,54,3.20
2013,09,29,14,55,1.60
2013,09,29,14,57,1.60
2013,09,29,14,58,1.60
2013,09,29,15,03,3.20
2013,09,29,15,04,1.60
2013,09,29,15,05,4.80
2013,09,29,15,06,4.80
2013,09,29,15,07,3.20
2013,09,29,15,08,4.80
2013,09,29,15,09,1.60
2013,09,29,15,10,4.80
2013,09,29,15,11,3.20
2013,09,29,15,12,3.20
2013,09,29,15,14,1.60
2013,09,29,15,15,4.80
2013,09,29,15,16,4.80
2013,09,29,15,17,1.60
2013,09,29,15,18,1.60
2013,09,29,15,19,1.60
2013,09,29,15,23,3.20
2013,09,29,15,24,3.20
2013,09,29,15,25,3.20
2013,09,29,15,26,1.60
2013,09,29,15,27,3.20
2013,09,29,15,28,3.20
2013,09,29,15,29,3.20
2013,09,29,15,30,1.60
2013,09,29,15,31,1.60
2013,09,29,15,32,1.60
2013,09,29,15,33,6.40
2013,09,29,15,34,4.80
2013,09,29,15,35,6.40
2013,09,29,15,36,4.80
2013,09,29,15,37,3.20
2013,09,29,15,38,1.60
2013,09,29,15,39,3.20
2013,09,29,15,42,4.80
2013,09,29,15,43,1.60
2013,09,29,15,44,3.20
2013,09,29,15,45,4.80
2013,09,29,15,46,1.60
2013,09,29,15,49,3.20
2013,09,29,15,50,1.60
2013,09,29,15,51,1.60
2013,09,29,15,52,1.60
2013,09,29,15,53,6.40
2013,09,29,15,54,6.40
2013,09,29,15,55,4.80
2013,09,29,15,56,3.20
2013,09,29,15,57,3.20
2013,09,29,15,58,3.20
2013,09,29,15,59,1.60
2013,09,29,16,00,3.20
2013,09,29,16,01,1.60
2013,09,29,16,02,4.80
2013,09,29,16,03,6.40
2013,09,29,16,04,3.20
2013,09,29,16,05,6.40
2013,09,29,16,06,3.20
2013,09,29,16,07,4.80
2013,09,29,16,08,3.20
2013,09,29,16,09,1.60
2013,09,29,16,10,1.60
2013,09,29,16,11,3.20
2013,09,29,16,12,1.60
2013,09,29,16,13,4.80
2013,09,29,16,14,6.40
2013,09,29,16,15,3.20
2013,09,29,16,16,1.60
2013,09,29,16,17,1.60
2013,09,29,16,18,3.20
2013,09,29,16,19,3.20
2013,09,29,16,20,4.80
2013,09,29,16,21,3.20
2013,09,29,16,22,11.30
2013,09,29,16,23,4.80
2013,09,29,16,24,4.80
2013,09,29,16,25,22.50
2013,09,29,16,26,6.40
2013,09,29,16,27,9.60
2013,09,29,16,28,14.50
2013,09,29,16,29,9.60
2013,09,29,16,30,4.80
2013,09,29,16,31,6.40
2013,09,29,16,32,4.80
2013,09,29,16,33,3.20
2013,09,29,16,34,8.10
2013,09,29,16,35,6.40
2013,09,29,16,36,11.30
2013,09,29,16,37,8.10
2013,09,29,16,38,8.10
2013,09,29,16,39,4.80
2013,09,29,16,40,11.30
2013,09,29,16,41,4.80
2013,09,29,16,42,16.10
2013,09,29,16,43,16.10
2013,09,29,16,44,11.30
2013,09,29,16,45,11.30
2013,09,29,16,46,4.80
2013,09,29,16,47,11.30
2013,09,29,16,48,8.10
2013,09,29,16,49,4.80
2013,09,29,16,50,6.40
2013,09,29,16,51,11.30
2013,09,29,16,52,9.60
2013,09,29,16,53,8.10
2013,09,29,16,54,11.30
2013,09,29,16,55,4.80
2013,09,29,16,56,6.40
2013,09,29,16,57,11.30
2013,09,29,16,58,9.60
2013,09,29,16,59,8.10
2013,09,29,17,00,9.60
2013,09,29,17,01,11.30
2013,09,29,17,02,17.70
2013,09,29,17,03,6.40
2013,09,29,17,04,6.40
2013,09,29,17,05,4.80
2013,09,29,17,06,4.80
2013,09,29,17,07,6.40
2013,09,29,17,08,6.40
2013,09,29,17,09,8.10
2013,09,29,17,10,6.40
2013,09,29,17,11,8.10
2013,09,29,17,12,8.10
2013,09,29,17,13,11.30
2013,09,29,17,14,6.40
2013,09,29,17,15,8.10
2013,09,29,17,16,4.80
2013,09,29,17,17,11.30
2013,09,29,17,18,9.60
2013,09,29,17,19,3.20
2013,09,29,17,20,4.80
2013,09,29,17,21,4.80
2013,09,29,17,22,6.40
2013,09,29,17,23,17.70
2013,09,29,17,24,17.70
2013,09,29,17,25,24.20
2013,09,29,17,26,17.70
2013,09,29,17,27,4.80
2013,09,29,17,28,11.30
2013,09,29,17,29,16.10
2013,09,29,17,30,6.40
2013,09,29,17,31,17.70
2013,09,29,17,32,4.80
2013,09,29,17,33,8.10
2013,09,29,17,34,8.10
2013,09,29,17,35,6.40
2013,09,29,17,36,4.80
2013,09,29,17,37,17.70
2013,09,29,17,38,14.50
2013,09,29,17,39,14.50
2013,09,29,17,40,20.90
2013,09,29,17,41,6.40
2013,09,29,17,42,14.50
2013,09,29,17,43,12.90
2013,09,29,17,44,8.10
2013,09,29,17,45,8.10
2013,09,29,17,46,6.40
2013,09,29,17,47,6.40
2013,09,29,17,48,9.60
2013,09,29,17,49,16.10
2013,09,29,17,50,8.10
2013,09,29,17,51,8.10
2013,09,29,17,52,9.60
2013,09,29,17,53,9.60
2013,09,29,17,54,11.30
2013,09,29,17,55,20.90
2013,09,29,17,56,9.60
2013,09,29,17,57,14.50
2013,09,29,17,58,6.40
2013,09,29,17,59,9.60
2013,09,29,18,00,6.40
2013,09,29,18,01,11.30
2013,09,29,18,02,6.40
2013,09,29,18,03,9.60
2013,09,29,18,04,30.60
2013,09,29,18,05,8.10
2013,09,29,18,06,14.50
2013,09,29,18,07,9.60
2013,09,29,18,08,8.10
2013,09,29,18,09,9.60
2013,09,29,18,10,6.40
2013,09,29,18,11,16.10
2013,09,29,18,12,11.30
2013,09,29,18,13,8.10
2013,09,29,18,14,8.10
2013,09,29,18,15,8.10
2013,09,29,18,16,8.10
2013,09,29,18,17,16.10
2013,09,29,18,18,14.50
2013,09,29,18,19,19.30
2013,09,29,18,20,9.60
2013,09,29,18,21,9.60
2013,09,29,18,22,4.80
2013,09,29,18,23,11.30
2013,09,29,18,24,11.30
2013,09,29,18,25,22.50
2013,09,29,18,26,19.30
2013,09,29,18,27,9.60
2013,09,29,18,28,20.90
2013,09,29,18,29,8.10
2013,09,29,18,30,11.30
2013,09,29,18,31,6.40
2013,09,29,18,32,9.60
2013,09,29,18,33,9.60
2013,09,29,18,34,11.30
2013,09,29,18,35,8.10
2013,09,29,18,36,4.80
2013,09,29,18,37,9.60
2013,09,29,18,38,19.30
2013,09,29,18,39,17.70
2013,09,29,18,40,9.60
2013,09,29,18,41,16.10
2013,09,29,18,42,6.40
2013,09,29,18,43,14.50
2013,09,29,18,44,6.40
2013,09,29,18,45,8.10
2013,09,29,18,46,19.30
2013,09,29,18,47,14.50
2013,09,29,18,48,6.40
2013,09,29,18,49,8.10
2013,09,29,18,50,9.60
2013,09,29,18,51,8.10
2013,09,29,18,52,17.70
2013,09,29,18,53,14.50
2013,09,29,18,54,24.20
2013,09,29,18,55,9.60
2013,09,29,18,56,6.40
2013,09,29,18,57,16.10
2013,09,29,18,58,8.10
2013,09,29,18,59,6.40
2013,09,29,19,00,22.50
2013,09,29,19,01,20.90
2013,09,29,19,02,9.60
2013,09,29,19,03,8.10
2013,09,29,19,04,8.10
2013,09,29,19,05,14.50
2013,09,29,19,06,25.70
2013,09,29,19,07,9.60
2013,09,29,19,08,8.10
2013,09,29,19,09,9.60
2013,09,29,19,10,17.70
2013,09,29,19,11,14.50
2013,09,29,19,12,6.40
2013,09,29,19,13,9.60
2013,09,29,19,14,17.70
2013,09,29,19,15,8.10
2013,09,29,19,16,14.50
2013,09,29,19,17,4.80
2013,09,29,19,18,11.30
2013,09,29,19,19,3.20
2013,09,29,19,20,9.60
2013,09,29,19,21,14.50
2013,09,29,19,22,16.10
2013,09,29,19,23,8.10
2013,09,29,19,24,6.40
2013,09,29,19,25,6.40
2013,09,29,19,26,6.40
2013,09,29,19,27,4.80
2013,09,29,19,28,4.80
2013,09,29,19,29,4.80
2013,09,29,19,30,4.80
2013,09,29,19,31,8.10
2013,09,29,19,32,8.10
2013,09,29,19,33,8.10
2013,09,29,19,34,9.60
2013,09,29,19,35,8.10
2013,09,29,19,36,4.80
2013,09,29,19,37,8.10
2013,09,29,19,38,14.50
2013,09,29,19,39,8.10
2013,09,29,19,40,4.80
2013,09,29,19,41,6.40
2013,09,29,19,42,4.80
2013,09,29,19,43,4.80
2013,09,29,19,44,9.60
2013,09,29,19,45,14.50
2013,09,29,19,46,3.20
2013,09,29,19,47,3.20
2013,09,29,19,48,6.40
2013,09,29,19,49,9.60
2013,09,29,19,50,8.10
2013,09,29,19,51,4.80
2013,09,29,19,52,8.10
2013,09,29,19,53,9.60
2013,09,29,19,54,3.20
2013,09,29,19,55,8.10
2013,09,29,19,56,8.10
2013,09,29,19,57,8.10
2013,09,29,19,58,3.20
2013,09,29,19,59,3.20
2013,09,29,20,00,3.20
2013,09,29,20,02,3.20
2013,09,29,20,03,4.80
2013,09,29,20,04,6.40
2013,09,29,20,05,8.10
2013,09,29,20,06,6.40
2013,09,29,20,07,3.20
2013,09,29,20,08,3.20
2013,09,29,20,09,3.20
2013,09,29,20,10,3.20
2013,09,29,20,11,3.20
2013,09,29,20,12,6.40
2013,09,29,20,13,1.60
2013,09,29,20,14,6.40
2013,09,29,20,15,6.40
2013,09,29,20,16,1.60
2013,09,29,20,17,4.80
2013,09,29,20,18,4.80
2013,09,29,20,19,3.20
2013,09,29,20,20,3.20
2013,09,29,20,21,4.80
2013,09,29,20,22,3.20
2013,09,29,20,23,4.80
2013,09,29,20,24,4.80
2013,09,29,20,25,4.80
2013,09,29,20,26,3.20
2013,09,29,20,27,3.20
2013,09,29,20,28,4.80
2013,09,29,20,29,3.20
2013,09,29,20,30,1.60
2013,09,29,20,31,3.20
2013,09,29,20,32,1.60
2013,09,29,20,33,3.20
2013,09,29,20,34,3.20
2013,09,29,20,35,1.60
2013,09,29,20,36,3.20
2013,09,29,20,37,3.20
2013,09,29,20,38,8.10
2013,09,29,20,39,3.20
2013,09,29,20,40,4.80
2013,09,29,20,41,3.20
2013,09,29,20,42,3.20
2013,09,29,20,43,1.60
2013,09,29,20,44,3.20
2013,09,29,20,45,6.40
2013,09,29,20,46,16.10
2013,09,29,20,47,20.90
2013,09,29,20,48,6.40
2013,09,29,20,49,6.40
2013,09,29,20,50,16.10
2013,09,29,20,51,8.10
2013,09,29,20,52,14.50
2013,09,29,20,53,9.60
2013,09,29,20,54,20.90
2013,09,29,20,55,14.50
2013,09,29,20,56,54.70
2013,09,29,20,57,19.30
2013,09,29,20,58,11.30
2013,09,29,20,59,17.70
2013,09,29,21,00,20.90
2013,09,29,21,01,9.60
2013,09,29,21,02,19.30
2013,09,29,21,03,19.30
2013,09,29,21,04,12.90
2013,09,29,21,05,11.30
2013,09,29,21,06,20.90
2013,09,29,21,07,11.30
2013,09,29,21,08,20.90
2013,09,29,21,09,8.10
2013,09,29,21,10,17.70
2013,09,29,21,11,17.70
2013,09,29,21,12,17.70
2013,09,29,21,13,17.70
2013,09,29,21,14,27.40
2013,09,29,21,15,24.20
2013,09,29,21,16,19.30
2013,09,29,21,17,20.90
2013,09,29,21,18,25.70
2013,09,29,21,19,16.10
2013,09,29,21,20,32.20
2013,09,29,21,21,29.00
2013,09,29,21,22,25.70
2013,09,29,21,23,19.30
2013,09,29,21,24,16.10
2013,09,29,21,25,14.50
2013,09,29,21,26,19.30
2013,09,29,21,27,14.50
2013,09,29,21,28,9.60
2013,09,29,21,29,22.50
2013,09,29,21,30,16.10
2013,09,29,21,31,20.90
2013,09,29,21,32,22.50
2013,09,29,21,33,19.30
2013,09,29,21,34,11.30
2013,09,29,21,35,6.40
2013,09,29,21,36,14.50
2013,09,29,21,37,9.60
2013,09,29,21,38,8.10
2013,09,29,21,39,14.50
2013,09,29,21,40,4.80
2013,09,29,21,41,3.20
2013,09,29,21,42,6.40
2013,09,29,21,43,8.10
2013,09,29,21,44,11.30
2013,09,29,21,45,8.10
2013,09,29,21,46,9.60
2013,09,29,21,47,12.90
2013,09,29,21,48,6.40
2013,09,29,21,49,20.90
2013,09,29,21,50,11.30
2013,09,29,21,51,8.10
2013,09,29,21,52,8.10
2013,09,29,21,53,12.90
2013,09,29,21,54,9.60
2013,09,29,21,55,9.60
2013,09,29,21,56,6.40
2013,09,29,21,57,3.20
2013,09,29,21,58,3.20
2013,09,29,21,59,4.80
2013,09,29,22,00,6.40
2013,09,29,22,01,11.30
2013,09,29,22,02,6.40
2013,09,29,22,03,8.10
2013,09,29,22,04,6.40
2013,09,29,22,05,3.20
2013,09,29,22,06,8.10
2013,09,29,22,07,9.60
2013,09,29,22,08,9.60
2013,09,29,22,09,17.70
2013,09,29,22,10,12.90
2013,09,29,22,11,8.10
2013,09,29,22,12,4.80
2013,09,29,22,13,1.60
2013,09,29,22,14,6.40
2013,09,29,22,15,14.50
2013,09,29,22,16,9.60
2013,09,29,22,17,4.80
2013,09,29,22,18,8.10
2013,09,29,22,19,6.40
2013,09,29,22,20,4.80
2013,09,29,22,21,4.80
2013,09,29,22,22,1.60
2013,09,29,22,23,1.60
2013,09,29,22,24,16.10
2013,09,29,22,25,8.10
2013,09,29,22,26,14.50
2013,09,29,22,27,6.40
2013,09,29,22,28,4.80
2013,09,29,22,29,16.10
2013,09,29,22,30,16.10
2013,09,29,22,31,8.10
2013,09,29,22,32,6.40
2013,09,29,22,33,11.30
2013,09,29,22,34,19.30
2013,09,29,22,35,19.30
2013,09,29,22,36,17.70
2013,09,29,22,37,35.40
2013,09,29,22,38,24.20
2013,09,29,22,39,20.90
2013,09,29,22,40,24.20
2013,09,29,22,41,19.30
2013,09,29,22,42,12.90
2013,09,29,22,43,9.60
2013,09,29,22,44,16.10
2013,09,29,22,45,20.90
2013,09,29,22,46,17.70
2013,09,29,22,47,14.50
2013,09,29,22,48,24.20
2013,09,29,22,49,24.20
2013,09,29,22,50,22.50
2013,09,29,22,51,16.10
2013,09,29,22,52,9.60
2013,09,29,22,53,9.60
2013,09,29,22,54,16.10